STARLINK-34211, 64255

Orbit data source: Space-Track

STARLINK-34211, 64255 is a payload satellite owned by SpaceX/Seattle (US) in LEO that was launched on Tue, 03 Jun 2025 UTC via an FALCON 9 launch vehicle from the Air Force Eastern Test Range (AFETR). Payload-class satellites include a variety of spacecraft equipped with specific instruments for various scientific and technological missions. These include communications satellites like Starlink; space stations such as the ISS; scientific satellites like the Hubble; Earth observation satellites from companies like Planet Labs, Umbra, and HawkEye 360; GPS; miniature CubeSats for education and research; and military/defense satellites.

Loading next visibility...
Identifier
64255, 2025-119Y
Orbit
LEO
Country
Flag of USUS
Related business
Manufacturer
SpaceX/Seattle
Mission
Operational Commercial Communications
Bus & Motor
STARLINK V2MO, Unknown motor
Mass
575 kg wet, ~530 kg dry
Launch date (UTC)
2025-06-03 (1 year ago)
Launch vehicle
FALCON 9
Launch site
Air Force Eastern Test Range (AFETR)
Object type
Payload
Rocket body
Debris
Shape & HBR
Box + 2 Pan, 17.7 m
Radar Cross Section
36.964 m², Large (>1 m²)

Expand to show TLE details & history
Last TLE update: 18 hours ago

TLE from 18 hours ago
0 STARLINK-34211
1 64255U 25119Y   26171.14219432  .00020029  00000-0  73459-3 0  9997
2 64255  43.0007  88.8380 0001207 264.3572  95.7142 15.27616053 59831
Epoch: 2026-06-20T03:24Z
TLE epoch observation values (Epoch: 2026-06-20T03:24:45.589Z)
Latitude
-0.00001°
Longitude
129.28697°
Altitude
482.799 km
Speed
7.626 km/s
True Right ascension
05h 55m 21s
True Declination
0° 00' 00"
Sunlit
Object was in daylight at epoch
Visualization orbit readout
Latitude
Unknown
Longitude
Unknown
Altitude
Unknown
Speed
Unknown
Apparent Right ascension
Unknown
Apparent Declination
Unknown
Sunlit
N/A
Visualization observer readout
Local Sidereal Time
08:33:01
Azimuth
Unknown
Elevation
Unknown
Doppler factor
Unknown
Orbital elements
Apogee altitude
485.715 km
Perigee altitude
484.058 km
Semi-major axis
6,863.023 km
Eccentricity
0.00012
Inclination
43.0007°
RAAN
88.838°
Arg. of periapsis
264.3572°
True anomaly
95.72796°
Mean anomaly
95.7142°
Eccentric anomaly
95.72108°
Mean motion
3.81742 °/min
Orbital period
94.3 mins
BSTAR
0.00073459
Loading maneuver chart data...
Computing Atmospheric mass density...
Loading historical data...
Loading historical data...
Loading historical data...
Loading historical data...
Loading historical data...
Loading historical data...
Loading historical data...

Documentation

Showing up to 5 results
|